Location: B�di�
(14.6834°N, 3.1047°W)
Time: 02:36:17
(UTC+00:00)

Cosmos 1455 - Pass Details

Date: 24 January 2020
Orbit: 498 x 524 km, 82.5° (Epoch: 19 February)

Event Time Altitude Azimuth Distance (km) Brightness Sun altitude
Rises 18:54:32 0° 354° (N) 2,598 5.7 -11.7°
Reaches altitude 10° 18:56:39 10° 353° (N) 1,709 4.7 -12.2°
Maximum altitude 19:00:23 79° 266° (W) 513 2.2 -13.1°
Drops below altitude 10° 19:04:06 10° 179° (S) 1,697 5.0 -13.9°
Sets 19:06:12 0° 178° (S) 2,577 5.9 -14.4°
